Location: Unspecified
(43.3830°N, 0.0000°E)
Time: 08:02:47
(UTC+00:00)

N. Korean satellite - Pass Details

Date: 26 November 2020
Orbit: 453 x 502 km, 97.2° (Epoch: 16 January)

Event Time Altitude Azimuth Distance (km) Brightness Sun altitude
Rises 04:48:28 0° 25° (NNE) 2,545 10.5 -24.8°
Reaches altitude 10° 04:50:49 10° 40° (NE) 1,670 9.7 -24.3°
Maximum altitude 04:53:46 24° 95° (E) 1,054 9.0 -23.8°
Drops below altitude 10° 04:56:45 10° 151° (SSE) 1,679 9.7 -23.3°
Sets 04:59:06 0° 165° (SSE) 2,564 10.5 -22.8°
